GOES 7 [-]

Last updated on Oct. 25, 2020, 5:55 a.m. UTC

1 17561U 87022A   20298.02349560 -.00000261  00000-0  00000+0 0  9998
2 17561  14.7038 353.7487 0005620  15.0512   7.1560  0.99907381106382
UTC
Height (km)
Latitude
Longitude
Inclination
Orbital Period
UTC large
Height (km)
Speed (km/s)
/
Latitude / Longitude
Inclination (degrees)
Orbital Period (minutes)
Azimuth
Elevation
Range (km)
Doppler Factor
iOS Compass Heading
iOS Angle

Next 30 passes for location: Hong Kong

Rise time Rise Azimuth (degrees) Set time Set Azimuth (degrees) Duration Max altitude (degrees)

No matching passes for this satellites